1496818800.27,62546,16.63,73648.5,9.57,-0.85,-0.69,0,*77
1496818801.48,62547,16.63,73654.8,9.55,-0.27,-0.11,0,*73
1496818802.72,62548,16.63,73648.0,9.53,-1.17,-1.01,0,*78
1496818803.9,62549,16.63,73650.8,9.47,-0.29,0.17,0,*5B
1496818805.12,62550,16.63,73648.8,9.47,0.55,1.13,0,*40
1496818806.36,62551,16.63,73648.5,9.45,1.33,1.75,0,*72
1496818807.61,62552,16.63,73652.8,9.45,2.05,2.55,0,*76
1496818808.87,62553,16.63,73652.3,9.45,2.09,2.59,0,*77
1496818810.12,62554,16.63,73650.3,9.45,2.09,2.59,0,*70
1496818811.35,62555,16.63,73652.0,9.47,2.59,3.07,0,*7C
1496818812.59,62556,16.63,73648.0,9.47,3.07,3.41,0,*77
1496818813.82,62557,16.63,73650.8,9.49,2.95,3.33,0,*77
1496818815.02,62558,16.63,73650.8,9.53,3.25,3.55,0,*79
1496818816.24,62559,16.63,73648.5,9.53,2.85,2.99,0,*72
1496818817.49,62560,16.63,73654.3,9.53,2.13,2.21,0,*74
1496818818.72,62561,16.63,73652.5,9.53,2.91,3.15,0,*79
1496818819.95,62562,16.63,73654.3,9.53,2.91,3.15,0,*7A
1496818821.15,62563,16.63,73652.3,9.55,2.65,2.69,0,*7C
1496818822.35,62564,16.63,73652.3,9.55,1.71,1.83,0,*7A
1496818823.55,62565,16.63,73652.0,9.55,2.31,2.55,0,*74
1496818824.77,62566,16.63,73650.8,9.53,2.13,2.27,0,*74
1496818826.02,62567,16.63,73654.8,9.53,2.77,2.85,0,*7F
1496818827.25,62568,16.63,73648.3,9.55,2.59,2.89,0,*76
1496818828.47,62569,16.63,73650.3,9.53,2.89,3.25,0,*7B
1496818829.72,62570,16.63,73652.3,9.53,2.89,3.37,0,*70
1496818830.96,62571,16.63,73652.8,9.53,2.55,3.23,0,*75
1496818832.18,62572,16.63,73654.8,9.55,2.89,3.53,0,*76
1496818833.43,62573,16.63,73654.0,9.57,2.77,3.49,0,*7F
1496818834.66,62574,16.63,73656.0,9.55,3.07,3.79,0,*7F
1496818835.84,62575,16.63,73658.3,9.59,2.91,3.55,0,*72
1496818837.07,62576,16.63,73656.8,9.59,2.69,3.33,0,*76
1496818838.27,62577,16.63,73662.5,9.59,2.89,3.81,0,*70
1496818839.49,62578,16.63,73662.3,9.61,3.33,4.15,0,*7E
1496818840.73,62579,16.63,73656.8,9.61,3.37,4.41,0,*7A
1496818841.93,62580,16.63,73658.5,9.65,4.07,4.89,0,*78
1496818843.14,62581,16.63,73654.3,9.65,4.07,4.81,0,*71
1496818844.37,62582,16.63,73652.0,9.69,3.79,4.37,0,*7D
1496818845.6,62583,16.63,73656.8,9.69,2.95,3.45,0,*7D
1496818846.82,62584,16.63,73658.3,9.69,3.55,4.05,0,*74
1496818848.02,62585,16.63,73656.0,9.69,4.11,4.49,0,*7A
1496818849.23,62586,16.63,73656.5,9.71,4.53,5.01,0,*7B
1496818850.44,62587,16.63,73656.3,9.73,4.85,5.33,0,*72
1496818851.66,62588,16.63,73660.3,9.77,5.73,6.21,0,*71
1496818852.88,62589,16.63,73654.0,9.81,5.49,5.89,0,*71
1496818854.1,62590,16.63,73652.3,9.85,5.51,5.99,0,*75
1496818855.3,62591,16.63,73656.3,9.87,5.37,5.73,0,*72
1496818856.48,62592,16.63,73654.8,9.91,5.19,5.63,0,*7B
1496818857.68,62593,16.63,73656.0,9.91,5.37,5.77,0,*73
1496818858.91,62594,16.63,73652.3,9.93,5.01,5.33,0,*73
1496818860.09,62595,16.63,73652.8,9.95,5.15,5.49,0,*7C
1496818861.28,62596,16.63,73654.3,10.01,5.29,5.63,0,*4D
1496818862.52,62597,16.63,73652.3,10.03,4.63,4.71,0,*43
1496818863.72,62598,16.63,73654.0,10.03,3.33,3.29,0,*44
1496818864.93,62599,16.63,73654.8,10.03,3.89,3.79,0,*41
1496818866.14,62600,16.63,73654.3,10.03,4.15,4.05,0,*4C
1496818867.32,62601,16.63,73656.8,10.03,4.15,3.93,0,*45
1496818868.55,62602,16.63,73656.8,10.03,2.85,2.59,0,*4E
1496818869.75,62603,16.63,73658.5,9.99,1.79,1.43,0,*7C
1496818871.01,62604,16.63,73654.8,9.93,1.21,0.83,0,*41
1496818872.24,62605,16.63,73652.0,9.93,1.05,0.59,0,*41
1496818873.49,62606,16.63,73654.8,9.89,1.13,0.63,0,*47
1496818874.74,62607,16.63,73650.3,9.85,1.51,1.17,0,*7E
1496818875.96,62608,16.63,73654.8,9.85,1.83,1.55,0,*78
1496818877.21,62609,16.63,73656.5,9.81,2.25,2.09,0,*78
1496818878.41,62610,16.63,73656.5,9.81,2.61,2.35,0,*7F
1496818879.64,62611,16.63,73654.8,9.81,2.69,2.61,0,*77
1496818880.84,62612,16.63,73648.8,9.77,3.59,3.59,0,*75
1496818882.02,62613,16.63,73652.8,9.79,4.15,4.23,0,*7F
1496818883.22,62614,16.63,73652.3,9.79,4.05,4.11,0,*78
1496818884.39,62615,16.63,73654.3,9.79,3.85,3.85,0,*7C
1496818885.6,62616,16.63,73652.5,9.81,4.15,4.23,0,*7D
1496818886.78,62617,16.63,73652.8,9.79,4.37,4.45,0,*7B
1496818887.96,62618,16.63,73650.5,9.79,4.45,4.57,0,*72
1496818889.15,62619,16.63,73650.3,9.83,4.37,4.41,0,*74
1496818890.36,62620,16.63,73656.0,9.83,4.37,4.31,0,*79
1496818891.53,62621,16.63,73654.0,9.83,4.49,4.27,0,*76
1496818892.77,62622,16.63,73654.8,9.83,4.71,4.79,0,*75
1496818893.97,62623,16.63,73654.3,9.83,4.59,4.53,0,*76
1496818895.18,62624,16.63,73652.8,9.83,4.89,4.71,0,*7C
1496818896.39,62625,16.63,73654.8,9.83,4.63,4.41,0,*7A
1496818897.64,62626,16.63,73654.8,9.85,3.67,3.19,0,*76
1496818898.89,62627,16.63,73650.8,9.85,3.19,2.73,0,*73
1496818900.09,62628,16.63,73648.8,9.83,2.13,1.83,0,*7D
1496818901.32,62629,16.63,73650.5,9.81,2.31,1.97,0,*7B
1496818902.55,62630,16.63,73650.3,9.81,2.31,1.85,0,*70
1496818903.78,62631,16.63,73648.0,9.79,2.43,2.13,0,*7F
1496818904.98,62632,16.63,73654.0,9.79,3.33,2.91,0,*70
1496818906.21,62633,16.63,73650.8,9.79,3.23,2.69,0,*77
1496818907.46,62634,16.63,73654.0,9.77,3.03,2.47,0,*70
1496818908.69,62635,16.63,73652.5,9.79,2.59,2.21,0,*71
1496818909.89,62636,16.63,73650.8,9.79,2.91,2.59,0,*79
1496818911.1,62637,16.63,73652.8,9.79,3.23,2.61,0,*7B
1496818912.35,62638,16.63,73656.3,9.77,3.49,2.55,0,*71
1496818913.58,62639,16.63,73656.3,9.77,1.59,0.41,0,*44
1496818914.81,62640,16.63,73656.0,9.77,0.87,-0.45,0,*51
1496818916.03,62641,16.63,73656.0,9.77,1.37,0.01,0,*77
1496818917.28,62642,16.63,73658.5,9.73,0.13,-1.39,0,*60
1496818918.51,62643,16.63,73658.8,9.73,0.33,-1.29,0,*62
1496818919.72,62644,16.63,73654.5,9.71,-0.19,-1.47,0,*4A
1496818920.91,62645,16.63,73652.8,9.71,0.33,-0.73,0,*58
1496818922.08,62646,16.63,73652.3,9.71,-0.29,-1.17,0,*4E
1496818923.31,62647,16.63,73650.0,9.73,-0.15,-0.89,0,*74
1496818924.5,62648,16.63,73650.5,9.71,0.25,-0.29,0,*5D
1496818925.73,62649,16.63,73646.3,9.73,1.41,0.87,0,*44
1496818926.98,62650,16.63,73650.8,9.73,1.67,1.63,0,*73
1496818928.18,62651,16.63,73646.3,9.79,2.51,2.95,0,*74
1496818929.38,62652,16.63,73650.3,9.79,4.11,4.59,0,*73
1496818930.59,62653,16.63,73644.0,9.83,5.11,5.51,0,*7F
1496818931.82,62654,16.63,73650.5,9.81,4.97,5.19,0,*79
1496818933.03,62655,16.63,73648.5,9.87,5.05,5.15,0,*78
1496818934.21,62656,16.63,73650.5,9.87,5.15,5.15,0,*7A
1496818935.44,62657,16.63,73648.3,9.89,5.07,5.05,0,*77
1496818936.64,62658,16.63,73648.3,9.91,4.23,4.01,0,*73
1496818937.84,62659,16.63,73652.5,9.91,3.97,3.85,0,*71
1496818939.04,62660,16.63,73650.8,9.91,3.79,3.63,0,*73
1496818940.25,62661,16.63,73652.3,9.89,4.27,4.07,0,*72
1496818941.43,62662,16.63,73654.8,9.91,4.37,4.23,0,*7F
1496818942.65,62663,16.63,73652.5,9.93,4.19,4.01,0,*70
1496818943.83,62664,16.63,73650.0,9.91,4.49,4.33,0,*71
1496818945.06,62665,16.63,73654.8,9.91,3.97,3.79,0,*7D
1496818946.24,62666,16.63,73650.3,9.91,4.27,4.07,0,*7C
1496818947.42,62667,16.63,73652.8,9.91,4.23,4.07,0,*79
1496818948.6,62668,16.63,73648.3,9.91,4.33,4.27,0,*75
1496818949.77,62669,16.63,73652.0,9.91,4.33,4.23,0,*70
1496818950.98,62670,16.63,73652.8,9.91,3.89,3.67,0,*79
1496818952.17,62671,16.63,73650.5,9.91,3.55,3.53,0,*7E
1496818953.35,62672,16.63,73650.0,9.91,4.15,4.15,0,*7B
1496818954.56,62673,16.63,73652.5,9.89,4.27,4.15,0,*72
1496818955.76,62674,16.63,73650.8,9.91,3.63,3.45,0,*79
1496818956.97,62675,16.63,73648.5,9.91,3.63,3.41,0,*7C
1496818958.17,62676,16.63,73646.8,9.91,3.53,3.29,0,*72
1496818959.38,62677,16.63,73652.0,9.91,2.61,2.43,0,*7E
1496818960.6,62678,16.63,73650.8,9.87,2.81,2.69,0,*70
1496818961.83,62679,16.63,73654.0,9.85,2.77,2.65,0,*76
1496818963.08,62680,16.63,73654.3,9.85,2.77,2.73,0,*77
1496818964.31,62681,16.63,73654.3,9.81,3.41,3.29,0,*78
1496818965.51,62682,16.63,73654.3,9.83,4.01,3.93,0,*7B
1496818966.72,62683,16.63,73652.5,9.83,3.89,3.79,0,*79
1496818967.92,62684,16.63,73652.5,9.83,3.55,3.33,0,*71
1496818969.18,62685,16.63,73652.8,9.85,2.77,2.51,0,*72
1496818970.38,62686,16.63,73654.8,9.79,2.35,2.13,0,*72
1496818971.63,62687,16.63,73652.5,9.77,1.71,1.55,0,*7F
1496818972.87,62688,16.69,73656.5,9.73,2.05,1.89,0,*75
1496818974.1,62689,16.63,73654.5,9.71,1.43,1.09,0,*7F
1496818975.35,62690,16.63,73652.3,9.69,2.09,1.85,0,*77
1496818976.57,62691,16.63,73654.5,9.67,2.25,2.09,0,*71
1496818977.8,62692,16.63,73654.0,9.67,2.21,2.01,0,*7E
1496818979.03,62693,16.63,73654.8,9.63,2.17,2.05,0,*7A
1496818980.25,62694,16.63,73654.0,9.63,2.51,2.39,0,*70
1496818981.48,62695,16.63,73654.8,9.61,2.85,2.65,0,*73
1496818982.71,62696,16.63,73654.0,9.59,2.69,2.51,0,*7E
1496818983.91,62697,16.69,73658.3,9.59,2.61,2.47,0,*70
1496818985.12,62698,16.63,73656.0,9.59,2.91,2.73,0,*77
1496818986.33,62699,16.63,73654.5,9.59,2.81,2.61,0,*74
1496818987.56,62700,16.63,73656.0,9.57,2.35,2.09,0,*7A
1496818988.76,62701,16.63,73652.0,9.55,2.65,2.55,0,*75
1496818989.96,62702,16.63,73652.8,9.55,3.07,2.91,0,*7B
1496818991.18,62703,16.63,73656.0,9.55,3.37,3.37,0,*74
1496818992.43,62704,16.63,73652.0,9.53,3.45,3.23,0,*75
1496818993.68,62705,16.63,73656.8,9.49,3.23,3.11,0,*7E
1496818994.91,62706,16.69,73658.5,9.49,3.29,3.19,0,*7F
1496818996.13,62707,16.63,73656.8,9.49,3.29,3.19,0,*7E
1496818997.36,62708,16.63,73658.0,9.49,3.45,3.29,0,*78
1496818998.61,62709,16.63,73656.8,9.49,3.45,3.33,0,*72
1496818999.84,62710,16.63,73656.5,9.47,3.71,3.71,0,*75
1496819001.07,62711,16.63,73658.3,9.47,4.05,4.05,0,*74
1496819002.25,62712,16.63,73656.0,9.47,3.89,3.89,0,*77
1496819003.43,62713,16.63,73660.0,9.47,4.11,4.11,0,*76
1496819004.66,62714,16.63,73660.5,9.49,3.79,3.81,0,*78
1496819005.91,62715,16.63,73662.3,9.53,3.49,3.45,0,*79
1496819007.11,62716,16.63,73660.3,9.49,2.99,2.99,0,*7D
1496819008.36,62717,16.69,73662.8,9.49,2.47,2.47,0,*7C
1496819009.58,62718,16.63,73660.3,9.47,1.63,1.55,0,*78
1496819010.81,62719,16.63,73656.0,9.45,0.97,0.79,0,*7E
1496819012.07,62720,16.63,73658.3,9.45,1.13,1.13,0,*74
1496819013.31,62721,16.63,73658.3,9.41,1.47,1.47,0,*71
1496819014.57,62722,16.63,73652.5,9.41,2.05,2.09,0,*7E
1496819015.81,62723,16.63,73652.3,9.39,2.01,2.01,0,*7C
1496819017.06,62724,16.69,73656.0,9.39,2.69,2.85,0,*79
1496819018.27,62725,16.63,73648.5,9.39,3.29,3.23,0,*70
1496819019.52,62726,16.63,73652.3,9.39,3.67,3.79,0,*76
1496819020.77,62727,16.63,73656.0,9.39,3.23,3.23,0,*78
1496819022.01,62728,16.63,73656.0,9.39,3.19,3.11,0,*7F
1496819023.24,62729,16.63,73658.3,9.41,2.61,2.55,0,*7E
1496819024.46,62730,16.63,73656.3,9.37,2.01,2.01,0,*70
1496819025.69,62731,16.63,73656.8,9.37,1.55,1.51,0,*75
1496819026.94,62732,16.63,73658.0,9.35,1.13,1.13,0,*70
1496819028.2,62733,16.63,73658.3,9.35,1.85,1.85,0,*71
1496819029.43,62734,16.63,73656.3,9.31,2.31,2.39,0,*7A
1496819030.66,62735,16.63,73658.3,9.27,1.79,1.85,0,*77
1496819031.88,62736,16.63,73656.0,9.27,1.17,1.41,0,*74
1496819033.13,62737,16.63,73660.5,9.27,1.63,1.89,0,*72
1496819034.38,62738,16.63,73656.0,9.23,2.25,2.47,0,*79
1496819035.61,62739,16.63,73660.0,9.25,1.97,2.25,0,*70
1496819036.86,62740,16.63,73662.0,9.23,1.59,2.09,0,*74
1496819038.11,62741,16.63,73656.0,9.23,2.55,3.15,0,*76
1496819039.32,62742,16.63,73656.3,9.25,3.23,3.81,0,*7E
1496819040.53,62743,16.63,73658.8,9.25,3.45,3.93,0,*7C
1496819041.76,62744,16.63,73660.0,9.27,3.11,3.29,0,*79
1496819042.98,62745,16.69,73658.8,9.27,2.39,2.35,0,*7F
1496819044.23,62746,16.63,73656.3,9.27,1.43,1.51,0,*73
1496819045.46,62747,16.63,73654.8,9.25,1.29,1.43,0,*7F
1496819046.69,62748,16.63,73652.0,9.23,1.59,1.83,0,*7D
1496819047.89,62749,16.63,73652.3,9.21,1.41,1.59,0,*70
1496819049.09,62750,16.69,73654.8,9.21,1.51,1.83,0,*7E
1496819050.33,62751,16.63,73662.3,9.19,0.51,0.63,0,*7A
1496819051.57,62752,16.63,73666.0,9.21,1.29,1.85,0,*75
1496819052.83,62753,16.63,73660.8,9.19,1.21,1.59,0,*76
1496819054.04,62754,16.63,73662.0,9.19,0.01,1.25,0,*79
1496819055.23,62755,16.63,73662.0,9.17,0.43,2.13,0,*46
1496819056.45,62756,16.63,73658.3,9.17,0.21,2.25,0,*44
1496819057.68,62757,16.69,73662.5,9.17,0.79,2.51,0,*4B
1496819058.93,62758,16.63,73662.8,9.19,0.29,2.09,0,*42
1496819060.15,62759,16.63,73662.5,9.21,1.47,2.69,0,*77
1496819061.39,62760,16.69,73666.0,9.21,1.29,2.59,0,*76
1496819062.6,62761,16.69,73664.5,9.21,1.83,3.15,0,*7E
1496819063.83,62762,16.63,73662.3,9.23,1.83,3.07,0,*7C
1496819065.09,62763,16.63,73662.3,9.23,1.17,2.89,0,*77
1496819066.28,62764,16.63,73660.5,9.25,0.05,2.59,0,*79
1496819067.53,62765,16.63,73660.3,9.31,0.83,3.37,0,*4A
1496819068.78,62766,16.63,73656.5,9.31,1.09,3.03,0,*7D
1496819070.03,62767,16.63,73656.8,9.31,1.47,3.37,0,*71
1496819071.27,62768,16.63,73660.0,9.35,0.67,2.69,0,*43
1496819072.48,62769,16.69,73666.5,9.35,0.29,2.31,0,*45
1496819073.73,62770,16.63,73664.0,9.39,1.17,2.85,0,*72
1496819074.94,62771,16.63,73664.3,9.39,-0.53,0.83,0,*5B
1496819076.15,62772,16.69,73662.3,9.37,-1.33,0.55,0,*6A
1496819077.4,62773,16.63,73658.5,9.39,-1.43,0.17,0,*64
1496819078.62,62774,16.63,73658.8,9.39,-0.33,0.91,0,*5B
1496819079.82,62775,16.69,73660.0,9.39,0.09,1.25,0,*70
1496819081.09,62776,16.63,73662.0,9.41,1.21,2.01,0,*72
1496819082.34,62777,16.69,73664.5,9.41,1.67,2.01,0,*71
1496819083.59,62778,16.63,73660.8,9.45,2.13,2.85,0,*76
1496819084.77,62779,16.69,73664.3,9.47,2.61,3.29,0,*77
1496819085.99,62780,16.69,73664.3,9.47,2.09,2.69,0,*7A
1496819087.21,62781,16.63,73658.5,9.49,0.09,0.91,0,*42
1496819088.46,62782,16.69,73666.3,9.53,1.29,2.21,0,*70
1496819089.69,62783,16.69,73664.0,9.53,2.31,3.23,0,*78
1496819090.92,62784,16.63,73664.0,9.55,2.47,3.15,0,*7D
1496819092.17,62785,16.69,73666.8,9.57,1.71,2.59,0,*71
1496819093.42,62786,16.63,73662.3,9.57,2.21,3.07,0,*7E
1496819094.64,62787,16.63,73662.8,9.59,2.85,3.67,0,*79
1496819095.85,62788,16.63,73660.0,9.61,3.85,4.37,0,*7E
1496819097.08,62789,16.63,73660.3,9.61,4.27,4.67,0,*75
1496819098.29,62790,16.63,73662.5,9.63,4.57,5.01,0,*79
1496819099.52,62791,16.63,73658.3,9.65,5.23,5.51,0,*79
1496819100.75,62792,16.69,73660.8,9.69,4.93,5.19,0,*70
1496819101.96,62793,16.69,73662.0,9.73,4.53,4.85,0,*72
1496819103.17,62794,16.63,73662.0,9.71,4.79,5.19,0,*7B
1496819104.4,62795,16.69,73664.5,9.73,4.75,4.85,0,*70
1496819105.6,62796,16.63,73660.3,9.77,4.07,4.07,0,*78
1496819106.85,62797,16.63,73660.3,9.77,3.19,3.15,0,*75
1496819108.08,62798,16.63,73660.3,9.79,3.45,3.45,0,*78
1496819109.33,62799,16.69,73662.5,9.77,2.89,2.81,0,*7F
1496819110.59,62800,16.69,73662.0,9.73,2.55,2.77,0,*7C
1496819111.82,62801,16.63,73660.3,9.71,3.07,3.15,0,*7C
1496819113.04,62802,16.63,73662.5,9.71,1.93,1.93,0,*7C
1496819114.24,62803,16.63,73660.0,9.69,1.75,1.75,0,*74
1496819115.44,62804,16.69,73664.3,9.67,1.67,1.75,0,*7E
1496819116.69,62805,16.69,73664.3,9.65,1.63,1.59,0,*77
1496819117.91,62806,16.69,73664.0,9.63,2.73,2.73,0,*7B
1496819119.17,62807,16.63,73660.3,9.61,2.17,2.17,0,*78
1496819120.38,62808,16.63,73660.5,9.59,1.93,1.83,0,*7D
1496819121.62,62809,16.69,73662.8,9.57,0.79,0.75,0,*7F
1496819122.84,62810,16.69,73662.0,9.55,1.47,1.47,0,*79
1496819124.09,62811,16.63,73660.8,9.53,2.21,2.17,0,*7B
1496819125.3,62812,16.63,73658.8,9.55,1.51,1.43,0,*78
1496819126.55,62813,16.63,73660.8,9.49,1.63,1.51,0,*76
1496819127.78,62814,16.69,73662.8,9.47,1.63,1.63,0,*7E
1496819129.04,62815,16.63,73662.8,9.45,1.97,1.85,0,*7E
1496819130.26,62816,16.63,73656.3,9.43,1.47,1.47,0,*78
1496819131.51,62817,16.63,73662.0,9.41,2.21,2.17,0,*7E
1496819132.76,62818,16.63,73660.8,9.41,2.01,1.89,0,*77
1496819133.99,62819,16.69,73660.5,9.37,1.29,1.17,0,*79
1496819135.21,62820,16.69,73660.3,9.37,1.25,1.25,0,*7E
1496819136.46,62821,16.69,73662.5,9.35,1.85,1.93,0,*7A
1496819137.66,62822,16.63,73660.3,9.33,1.83,1.63,0,*76
1496819138.91,62823,16.69,73662.0,9.31,1.47,1.21,0,*7B
1496819140.13,62824,16.63,73660.3,9.27,1.01,0.83,0,*40
1496819141.38,62825,16.63,73660.3,9.23,0.91,0.79,0,*78
1496819142.61,62826,16.69,73662.8,9.23,0.97,0.91,0,*7B
1496819143.85,62827,16.69,73662.5,9.19,0.37,0.21,0,*72
1496819145.06,62828,16.69,73662.8,9.15,0.25,0.09,0,*48
1496819146.27,62829,16.69,73662.5,9.15,-0.57,-0.77,0,*75
1496819147.48,62830,16.63,73658.3,9.09,0.25,0.17,0,*73
1496819148.68,62831,16.63,73660.5,9.05,1.05,1.05,0,*7F
1496819149.94,62832,16.63,73660.0,9.01,1.29,1.25,0,*74
1496819151.11,62833,16.69,73662.8,9.01,0.01,0.01,0,*79
1496819152.35,62834,16.63,73658.5,8.97,0.41,0.51,0,*71
1496819153.6,62835,16.69,73660.5,8.97,1.37,1.43,0,*72
1496819154.85,62836,16.69,73664.3,8.97,1.09,1.43,0,*7C
1496819156.1,62837,16.69,73666.0,8.97,2.21,2.59,0,*7C
1496819157.33,62838,16.69,73660.3,8.99,2.47,2.81,0,*78
1496819158.52,62839,16.63,73658.8,8.99,2.55,2.91,0,*7B
1496819159.75,62840,16.63,73660.0,9.01,3.29,3.79,0,*78
1496819160.95,62841,16.69,73662.0,9.05,3.89,4.15,0,*7A
1496819162.2,62842,16.63,73662.3,9.05,3.79,4.05,0,*77
1496819163.38,62843,16.69,73664.3,9.09,4.07,4.19,0,*79
1496819164.6,62844,16.69,73662.8,9.13,3.53,3.67,0,*7D
1496819165.8,62845,16.63,73660.3,9.13,3.53,3.63,0,*78
1496819167.02,62846,16.63,73664.0,9.13,3.29,3.41,0,*76
1496819168.21,62847,16.69,73664.5,9.13,3.55,3.67,0,*78
1496819169.42,62848,16.69,73664.0,9.17,3.29,3.37,0,*7D
1496819170.66,62849,16.69,73666.0,9.17,4.05,4.31,0,*74
1496819171.84,62850,16.69,73664.5,9.21,4.37,4.45,0,*7B
1496819173.05,62851,16.63,73660.5,9.21,3.63,3.75,0,*78
1496819174.27,62852,16.69,73666.0,9.23,3.85,3.79,0,*7D
1496819175.52,62853,16.69,73666.3,9.23,3.53,3.45,0,*78
1496819176.74,62854,16.69,73666.3,9.25,3.33,3.23,0,*7F
1496819178.0,62855,16.69,73664.5,9.23,3.15,3.03,0,*7E
1496819179.23,62856,16.69,73666.3,9.23,3.03,2.91,0,*70
1496819180.46,62857,16.63,73660.0,9.23,3.19,2.95,0,*7E
1496819181.68,62858,16.69,73666.8,9.25,3.45,3.19,0,*7B
1496819182.94,62859,16.69,73664.5,9.23,3.41,3.15,0,*74
1496819184.19,62860,16.69,73666.3,9.23,3.45,3.19,0,*76
1496819185.44,62861,16.69,73664.5,9.23,3.19,3.03,0,*75
1496819186.68,62862,16.69,73664.5,9.23,3.19,2.85,0,*79
1496819187.91,62863,16.69,73664.5,9.23,2.35,2.13,0,*78
1496819189.14,62864,16.63,73660.0,9.21,2.73,2.59,0,*71
1496819190.37,62865,16.63,73660.8,9.21,3.37,3.15,0,*78
1496819191.62,62866,16.69,73662.8,9.19,2.89,2.69,0,*7E
1496819192.85,62867,16.63,73660.0,9.19,2.99,2.81,0,*78
1496819194.06,62868,16.69,73662.8,9.21,3.45,3.29,0,*7F
1496819195.31,62869,16.69,73666.5,9.19,3.23,3.03,0,*7D
1496819196.56,62870,16.69,73664.5,9.19,3.49,3.23,0,*7B
1496819197.82,62871,16.69,73664.5,9.19,3.15,2.81,0,*7A
1496819199.05,62872,16.69,73666.8,9.19,3.53,3.25,0,*74
1496819200.31,62873,16.69,73668.0,9.19,4.05,3.75,0,*74
1496819201.52,62874,16.69,73666.5,9.19,4.07,3.81,0,*7A
1496819202.69,62875,16.69,73666.8,9.21,4.15,4.11,0,*7D
1496819203.9,62876,16.69,73666.3,9.21,4.07,4.01,0,*7C
1496819205.1,62877,16.69,73666.5,9.23,3.89,3.85,0,*75
1496819206.36,62878,16.69,73666.3,9.23,3.67,3.53,0,*71
1496819207.59,62879,16.69,73664.0,9.23,3.67,3.63,0,*73
1496819208.83,62880,16.69,73664.5,9.23,3.19,3.19,0,*71
1496819210.06,62881,16.69,73668.3,9.23,3.55,3.49,0,*7D
1496819211.28,62882,16.69,73666.5,9.23,3.63,3.45,0,*77
1496819212.53,62883,16.63,73664.8,9.23,3.45,3.19,0,*7B
1496819213.77,62884,16.69,73666.0,9.23,2.81,2.61,0,*7B
1496819215.03,62885,16.69,73668.0,9.23,3.07,3.03,0,*70
1496819216.28,62886,16.69,73668.8,9.23,3.37,3.53,0,*75
1496819217.52,62887,16.69,73666.0,9.23,3.19,3.19,0,*76
1496819218.77,62888,16.69,73666.3,9.23,2.69,2.73,0,*72
1496819220.03,62889,16.69,73664.3,9.23,2.43,2.43,0,*78
1496819221.26,62890,16.69,73670.0,9.23,2.47,2.61,0,*74
1496819222.47,62891,16.63,73664.0,9.21,3.41,3.63,0,*73
1496819223.7,62892,16.69,73668.0,9.19,3.25,3.15,0,*78
1496819224.96,62893,16.63,73666.8,9.19,3.11,3.11,0,*7A
1496819226.14,62894,16.69,73668.3,9.21,2.61,2.61,0,*76
1496819227.4,62895,16.69,73666.0,9.19,3.11,3.15,0,*78
1496819228.63,62896,16.69,73672.0,9.21,3.15,3.19,0,*78
1496819229.83,62897,16.69,73668.3,9.21,2.85,2.91,0,*70
1496819231.04,62898,16.69,73670.5,9.21,2.61,2.69,0,*72
1496819232.24,62899,16.69,73670.5,9.21,2.31,2.43,0,*7E
1496819233.45,62900,16.69,73672.5,9.21,2.61,3.03,0,*7F
1496819234.69,62901,16.69,73678.5,9.21,3.03,3.15,0,*7C
1496819235.91,62902,16.69,73674.5,9.23,2.61,2.59,0,*71
1496819237.13,62903,16.69,73674.5,9.23,0.43,-0.23,0,*50
1496819238.32,62904,16.69,73676.5,9.25,-1.29,-2.79,0,*7C
1496819239.54,62905,16.69,73674.5,9.21,-4.25,-5.03,0,*7A
1496819240.81,62906,16.69,73678.3,9.19,-6.27,-4.81,0,*79
1496819242.08,62907,16.69,73676.3,9.19,-9.41,-5.61,0,*78
1496819243.29,62908,16.69,73672.0,9.19,-6.73,-4.13,0,*7D
1496819244.53,62909,16.69,73672.3,9.19,-5.19,-3.15,0,*72
1496819245.74,62910,16.69,73668.8,9.21,-5.89,-3.35,0,*7A
1496819246.97,62911,16.69,73668.3,9.25,-10.19,-7.43,0,*47
1496819248.22,62912,16.69,73666.0,9.31,-18.49,-13.37,0,*7A
1496819249.49,62913,16.69,73670.3,9.31,-16.51,-10.67,0,*7A
1496819250.73,62914,16.69,73662.0,9.31,-15.11,-9.45,0,*42
1496819251.98,62915,16.69,73652.0,9.35,-13.29,-8.89,0,*4B
1496819253.22,62916,16.69,73654.3,9.35,-11.77,-8.41,0,*45
1496819254.47,62917,16.69,73652.8,9.39,-8.51,-5.73,0,*78
1496819255.7,62918,16.69,73656.5,9.39,-5.35,-3.71,0,*7C
1496819256.89,62919,16.69,73654.8,9.43,-3.87,-3.07,0,*7E
1496819258.09,62920,16.69,73658.0,9.43,-3.95,-2.95,0,*7D
1496819259.31,62921,16.69,73656.5,9.47,-3.47,-2.15,0,*7F
1496819260.51,62922,16.69,73658.5,9.49,-4.49,-3.31,0,*7C
1496819261.73,62923,16.69,73662.3,9.53,-4.33,-2.39,0,*72
1496819262.92,62924,16.69,73664.5,9.53,-0.61,1.05,0,*67
1496819264.13,62925,16.69,73662.3,9.55,0.37,1.59,0,*47
1496819265.32,62926,16.69,73660.3,9.59,0.29,1.75,0,*49
1496819266.54,62927,16.69,73662.5,9.59,0.41,2.21,0,*44
1496819267.79,62928,16.69,73662.0,9.61,0.71,2.13,0,*42
1496819268.96,62929,16.69,73662.3,9.63,-1.75,0.43,0,*6E
1496819270.16,62930,16.69,73664.0,9.63,-1.75,0.75,0,*63
1496819271.39,62931,16.69,73662.5,9.65,-1.83,1.01,0,*5F
1496819272.62,62932,16.69,73662.5,9.65,-2.35,1.13,0,*51
1496819273.85,62933,16.69,73660.3,9.69,-0.57,2.59,0,*67
1496819275.11,62934,16.69,73664.0,9.73,2.55,4.97,0,*72
1496819276.32,62935,16.69,73662.8,9.81,4.23,5.99,0,*76
1496819277.5,62936,16.69,73662.3,9.83,3.89,5.41,0,*75
1496819278.72,62937,16.69,73666.3,9.89,5.07,6.43,0,*7F
1496819279.95,62938,16.69,73664.0,9.91,3.33,4.67,0,*7C
1496819281.18,62939,16.69,73660.8,9.93,1.75,3.23,0,*78
1496819282.41,62940,16.69,73666.0,9.95,3.23,4.31,0,*75
1496819283.62,62941,16.69,73666.0,9.99,3.63,4.67,0,*7F
1496819284.85,62942,16.69,73666.5,10.01,3.89,5.05,0,*44
1496819286.1,62943,16.69,73666.5,10.05,3.45,5.01,0,*45
1496819287.36,62944,16.69,73662.8,10.07,0.87,3.33,0,*7A
1496819288.57,62945,16.69,73662.5,10.09,1.83,4.79,0,*49
1496819289.8,62946,16.69,73668.0,10.13,2.73,4.75,0,*41
1496819291.01,62947,16.69,73668.3,10.13,1.41,3.19,0,*4F
1496819292.23,62948,16.69,73666.3,10.13,0.29,2.39,0,*7C
1496819293.44,62949,16.69,73666.8,10.13,-0.81,1.97,0,*55
1496819294.64,62950,16.69,73664.8,10.13,-0.33,2.13,0,*5B
1496819295.86,62951,16.69,73666.0,10.13,1.17,3.29,0,*48
1496819297.1,62952,16.69,73666.5,10.17,1.21,3.11,0,*41
1496819298.32,62953,16.69,73666.5,10.17,0.63,2.89,0,*77
1496819299.53,62954,16.69,73668.5,10.17,0.87,3.25,0,*7D
1496819300.76,62955,16.69,73668.5,10.17,2.73,4.75,0,*47
1496819301.98,62956,16.69,73670.8,10.25,0.67,3.11,0,*77
1496819303.2,62957,16.69,73666.5,10.25,0.79,3.33,0,*79
1496819304.46,62958,16.69,73666.5,10.27,1.89,4.01,0,*4C
1496819305.68,62959,16.69,73670.0,10.29,0.21,2.85,0,*7A
1496819306.87,62960,16.69,73666.0,10.29,0.37,2.95,0,*76
1496819308.12,62961,16.69,73668.3,10.31,0.51,3.03,0,*70
1496819309.37,62962,16.69,73662.3,10.31,0.37,2.69,0,*7E
1496819310.62,62963,16.69,73662.0,10.31,0.71,2.89,0,*73
1496819311.89,62964,16.69,73656.5,10.35,1.55,3.41,0,*42
1496819313.09,62965,16.69,73660.5,10.33,1.41,3.03,0,*46
1496819314.35,62966,16.69,73664.8,10.35,1.85,3.19,0,*40
1496819315.6,62967,16.69,73666.3,10.35,1.51,2.51,0,*45
1496819316.86,62968,16.69,73664.0,10.35,1.25,2.21,0,*4E
1496819318.09,62969,16.69,73668.8,10.33,1.63,2.47,0,*4B
1496819319.31,62970,16.69,73668.3,10.33,1.67,2.47,0,*47
1496819320.55,62971,16.69,73674.8,10.33,1.29,2.39,0,*45
1496819321.78,62972,16.69,73668.8,10.33,2.09,3.11,0,*4C
1496819323.0,62973,16.69,73672.3,10.33,2.09,3.07,0,*4A
1496819324.24,62974,16.69,73670.3,10.31,1.75,2.77,0,*41
1496819325.49,62975,16.69,73670.5,10.31,0.75,2.09,0,*78
1496819326.72,62976,16.69,73674.5,10.29,1.09,2.55,0,*41
1496819327.93,62977,16.69,73674.8,10.29,2.31,3.49,0,*44
1496819329.17,62978,16.69,73674.3,10.31,3.07,3.85,0,*46
1496819330.42,62979,16.69,73674.5,10.31,0.87,1.97,0,*7D